sat.trackr.live / text

‹ back to catalog

KUIPER-00526

NORAD 69764 · 2026-151B

PAYLOAD ACTIVE UNKNOWN

§ Identity

Operator
Country
US
Launch date
2026-07-02
Launch site
AFETR
Launch vehicle
Mass (kg)
RCS (m²)

External: N2YO · Heavens-Above · Gunter

§ Orbital elements

Epoch: 2026-09-20T04:46:23.799648Z

Period
97.30 min
Inclination
51.8995°
Eccentricity
0.0000709
Mean motion
14.79925810 rev/d
Perigee alt
629.1 km
Apogee alt
630.1 km
Semi-major
7,007.7 km
B*
-1.3210e-5
RAAN
235.5991°
Arg perigee
57.4412°
Mean anomaly
302.6619°
Rev number
1,205

§ Raw data

KUIPER-005261 69764U 26151B   26263.19888657 -.00000322  00000+0 -13210-4 0  99972 69764  51.8995 235.5991 0000709  57.4412 302.6619 14.79925810 12055

JSON: /api/v1/satellites/69764 · /tle

For live sub-satellite position, see the globe view (requires WebGL).

§ Visibility from observer

Set your observer location to see the next 7 days of passes ≥ 10°. The values pass through the URL so the page stays shareable.

No JS? Fill the form by hand. The geolocation button needs JavaScript.